Location: American Medical Response
(33.3472°N, 96.5511°W)
Time: 13:21:51
(UTC+00:00)

Cosmos 1805 Rocket - Pass Details

Date: 11 July 2022
Orbit: 605 x 629 km, 82.5° (Epoch: 12 August)

Event Time Altitude Azimuth Distance (km) Brightness Sun altitude
Exits shadow 07:46:04 15° 78° (ENE) 1,665 6.0 -31.8°
Drops below altitude 10° 07:48:04 10° 51° (NE) 1,980 6.8 -31.7°
Sets 07:51:04 0° 29° (NNE) 2,884 8.1 -31.4°
